NOAA 16 DEB, 41306

Orbit data source: Space-Track

NOAA 16 DEB, 41306 is space debris in SSO originally from a launch on Thu, 21 Sep 2000 UTC launched from the Air Force Western Test Range (AFWTR). Debris objects in space refer to the collection of defunct objects orbiting the Earth. Examples of debris include non-operational satellites, rocket bodies, and fragments generated from explosions, collisions, or faulty payload assembly.

Loading next visibility...
Identifier
41306, 2000-055HJ
Orbit
SSO
Country
Flag of USUS
Related business
Manufacturer
Unknown
Mission
Spacecraft
Bus & Motor
Unknown
Mass
Unknown
Launch date (UTC)
2000-09-21 (25 years ago)
Launch vehicle
Unknown
Launch site
Air Force Western Test Range (AFWTR)
Object type
Payload
Rocket body
Debris
Shape & HBR
Unknown shape, 0.1 m
Radar Cross Section
Small (<0.1 m²)

Expand to show TLE details & history
Last TLE update: 17 hours ago

TLE from 17 hours ago
0 NOAA 16 DEB
1 41306U 00055HJ  25301.47584076  .00129894  00000-0  87655-2 0  9992
2 41306  98.9005 209.0336 0018850 188.0685 172.0238 15.05841149517170
Epoch: 2025-10-28T11:25Z
TLE epoch observation values (Epoch: 2025-10-28T11:25:12.641Z)
Latitude
0.00002°
Longitude
0.66814°
Altitude
564.884 km
Speed
7.572 km/s
True Right ascension
13h 56m 08s
True Declination
0° 00' 00"
Sunlit
Object was in daylight at epoch
Visualization orbit readout
Latitude
Unknown
Longitude
Unknown
Altitude
Unknown
Speed
Unknown
Apparent Right ascension
Unknown
Apparent Declination
Unknown
Sunlit
N/A
Visualization observer readout
Local Sidereal Time
23:44:52
Azimuth
Unknown
Elevation
Unknown
Doppler factor
Unknown
Orbital elements
Apogee altitude
559.031 km
Perigee altitude
532.927 km
Semi-major axis
6,924.116 km
Eccentricity
0.00189
Inclination
98.9005°
RAAN
209.0336°
Arg. of periapsis
188.0685°
True anomaly
172.0537°
Mean anomaly
172.0238°
Eccentric anomaly
172.03876°
Mean motion
3.76701 °/min
Orbital period
95.57 mins
BSTAR
0.0087655
Loading maneuver chart data...
Computing Atmospheric mass density...
Loading historical data...
Loading historical data...
Loading historical data...
Loading historical data...
Loading historical data...
Loading historical data...
Loading historical data...

Documentation

Showing up to 5 results
|